Location: Caser�o El Cortijo Real
(37.1839°N, 2.6995°W)
Time: 07:25:22
(UTC+00:00)

Daily predictions for brighter satellites

Satellite Brightness Start Highest point End
(mag) Time Altitude Azimuth Time Altitude Azimuth Time Altitude Azimuth
BREEZE-M DEB 3.9 19:28:34 10° NW 19:31:55 77° NE 19:43:48 10° SE
Iridium 2 3.6 19:31:00 10° N 19:34:47 81° E 19:38:31 10° S
Meteor 1-26 Rocket 4.2 19:34:43 10° N 19:40:15 68° E 19:45:37 10° SSE
Cosmos 1346 Rocket 3.9 19:37:14 10° SSW 19:41:05 51° W 19:44:59 10° N
Cosmos 1900 4.3 19:36:42 10° SSW 19:41:32 65° ESE 19:46:29 10° NE
Cosmos 1302 Rocket 4.3 19:38:44 10° NNW 19:43:55 71° WSW 19:49:05 10° S
Cosmos 1408 Rocket 4.1 19:43:59 10° SSW 19:48:25 67° W 19:52:52 10° N
COSMOS 2406 3.5 19:45:13 10° S 19:50:39 46° ESE 19:56:07 10° NE
IRS-1A Rocket 4.3 19:46:05 10° SSE 19:51:39 73° ENE 19:57:23 10° N
USA 267 3.3 19:45:28 10° NE 19:51:59 66° SE 19:58:27 10° SSW
Cosmos 1743 Rocket 3.6 19:47:55 10° S 19:52:17 65° E 19:56:43 10° NNE
Shenzhou-11 Module 3.8 19:50:38 10° NW 19:52:30 20° N 19:54:20 10° NE
Cosmos 2366 rocket 4.0 19:46:40 10° S 19:52:55 81° E 19:59:09 10° N
CZ-2C R/B 4.1 19:55:06 10° NNE 19:59:27 41° E 20:03:42 10° S
Cosmos 1862 3.9 19:56:53 10° SSE 20:00:37 38° E 20:04:23 10° NNE
MOS 1 Rocket 4.3 19:55:57 10° N 20:01:18 59° WNW 20:06:30 10° SSW
Sich 1 4.1 19:57:57 10° SE 20:01:35 26° E 20:05:14 10° NNE
SJ-6B 2.8 19:59:17 10° SSE 20:03:22 80° ENE 20:07:25 10° N
CZ-2C R/B 4.5 19:58:59 10° SSW 20:03:29 36° W 20:07:53 10° NNW
Cosmos 2082 Rocket 3.3 20:01:35 10° SSE 20:05:59 23° E 20:10:22 10° NE
Gbstr 26 Del rocket 3.8 20:04:25 10° WNW 20:07:54 36° SW 20:11:11 11° SSE
Meteor 2-6 Rocket 4.4 20:04:20 10° N 20:09:43 51° ENE 20:14:56 11° SSE
Cosmos 1500 Rocket 3.7 20:07:23 10° S 20:11:40 78° W 20:16:01 10° N
Ariane Rocket 3.4 20:10:32 10° S 20:15:32 64° WSW 20:20:35 10° NNW
USA 186 3.2 20:15:07 10° SSW 20:17:08 25° W 20:19:07 10° NW
Resurs 1-3 3.8 20:13:31 14° SSE 20:17:08 55° ENE 20:21:25 10° N
SL-08 R/B 4.5 20:13:31 10° S 20:19:47 85° E 20:25:58 10° N
BREEZE-M DEB (TANK) 3.6 20:13:18 10° WNW 20:19:51 39° SW 20:21:58 15° SSE
FREGAT/IRIS 3.8 20:18:09 10° SSW 20:20:36 35° W 20:23:04 10° NNW
ARGOS 4.3 20:15:58 10° S 20:21:03 43° W 20:26:10 10° NNW
Cosmos 407 Rocket 3.8 20:16:37 10° S 20:21:43 47° ESE 20:26:47 10° NNE
Cosmos 1992 Rocket 4.0 20:17:28 10° NNW 20:22:43 82° WSW 20:27:38 12° SSE
Cosmos 1666 Rocket 4.5 20:21:27 21° SE 20:23:10 28° E 20:26:52 10° NNE
SL-8 R/B 4.4 20:21:01 10° NW 20:25:40 45° NNE 20:28:49 19° E
CZ-2C R/B 3.1 20:22:09 10° N 20:27:14 61° WNW 20:32:22 10° SSW
Meteor 1-27 Rocket 4.3 20:28:14 10° N 20:33:50 42° ENE 20:36:53 24° SE
USA 238 DEB 4.2 20:28:36 10° S 20:34:13 31° ESE 20:40:01 10° NE
USA 238 4.2 20:28:44 10° S 20:34:21 31° ESE 20:40:06 10° NE
Meteor 1-10 Rocket 4.2 20:28:43 10° N 20:34:24 70° E 20:38:46 18° SSE
Cosmos 1805 Rocket 3.5 20:30:22 10° S 20:34:46 88° E 20:39:14 10° N
H-2A R/B 4.3 20:30:53 10° SSW 20:34:55 23° W 20:38:55 10° NW
Cosmos 1782 4.1 20:31:48 10° NNW 20:35:34 40° W 20:39:20 10° SSW
BREEZE-M DEB (TANK) 1.7 20:33:23 10° NW 20:38:13 77° NE 20:38:59 44° ESE
CZ-3A R/B 4.3 20:10:54 10° W 20:42:02 46° SSW 20:48:05 23° SE
SL-4 R/B 2.5 20:40:47 10° WSW 20:44:48 58° NW 20:48:32 10° NE
Cosmos 1980 Rocket 3.6 20:40:43 10° N 20:45:11 23° ENE 20:47:05 20° E
Cosmos 1140 Rocket 3.4 20:42:11 10° S 20:47:20 63° ESE 20:52:32 10° NNE
Cosmos 972 4.4 20:45:49 10° N 20:50:52 62° ENE 20:52:44 36° SE
Cosmos 1023 Rocket 4.4 20:46:36 10° S 20:51:50 73° ESE 20:57:06 10° NNE
ATLAS 5 CENTAUR R/B 2.4 20:47:42 10° NNW 20:53:43 87° ENE 20:57:18 30° SSE
Cosmos 1633 Rocket 3.1 20:55:06 41° SSE 20:56:20 57° E 21:00:41 10° NNE
Cosmos 1833 Rocket 2.9 20:50:49 10° SSW 20:56:23 71° WNW 21:02:01 10° NNE
Cosmos 389 Rocket 2.7 20:53:48 10° NNW 20:57:13 62° W 20:58:13 40° SSW
Cosmos 2228 Rocket 4.3 20:53:42 10° NNW 20:57:49 39° W 21:01:39 11° SSW
SPOT 3 Rocket 4.1 20:54:53 16° S 20:58:56 58° W 21:04:04 10° NNW
Cosmos 1812 2.9 20:56:33 10° NNW 21:00:22 70° W 21:01:40 39° SSW
Cosmos 1697 Rocket 2.8 20:55:41 10° NNW 21:01:14 58° ENE 21:03:04 39° ESE
Cosmos 1867 3.4 20:57:25 10° SSW 21:02:47 68° ESE 21:08:12 10° NE
CENTAUR R/B 3.7 21:04:46 23° E 21:04:46 23° E 21:08:06 10° NE
Resurs 01 Rocket 2.0 21:05:06 30° S 21:07:06 61° W 21:11:30 10° NNW
Landsat 7 3.9 21:09:00 50° ESE 21:09:52 59° ENE 21:14:32 10° N
FALCON 9 DEB 4.3 21:07:10 10° WSW 21:10:31 43° NW 21:13:52 10° NE
Cosmos 220 Rocket 4.0 21:07:42 10° NNW 21:11:54 71° WSW 21:12:46 52° SSW
Cosmos 1707 Rocket 3.4 21:07:38 10° N 21:12:00 87° W 21:12:52 57° S
Cosmos 1656 4.0 21:07:01 10° NNW 21:12:24 59° WSW 21:14:57 31° S
deb Kosmos-1763 4.1 21:14:16 69° NNE 21:14:16 69° NNE 21:17:31 10° NNE
Cosmos 676 Rocket 3.9 21:14:02 36° S 21:16:12 73° ESE 21:21:32 10° NNE
IGS 5A 3.3 21:17:35 73° E 21:17:41 74° ENE 21:21:49 10° N
Meteor 1-25 Rocket 4.3 21:17:53 50° SE 21:18:39 54° E 21:24:05 10° NNE
Cosmos 1470 Rocket 3.8 21:19:31 52° ENE 21:19:31 52° ENE 21:23:22 10° NNE
Cosmos 1934 Rocket 4.0 21:16:23 21° S 21:20:47 85° W 21:27:12 10° N
Aureole 1 Rocket 4.2 21:15:58 13° SSW 21:21:42 90° E 21:29:40 10° NNE
Cosmos 2360 4.1 21:22:47 10° NNW 21:28:33 74° ENE 21:29:33 59° SE
NOSS 3-2 (A) 3.1 21:23:47 13° SSW 21:28:46 81° ESE 21:34:58 10° NE
GP-B 3.0 21:26:04 10° N 21:30:31 86° W 21:30:41 82° SSW
NOSS 3-2 (C) 3.7 21:35:51 45° E 21:35:51 45° E 21:40:39 10° NE
SL-24 R/B - RUBIN 2 4.3 21:28:16 10° NNW 21:34:52 78° ENE 21:36:02 60° SE
Cosmos 921 Rocket 4.3 21:32:08 10° N 21:34:50 29° NE 21:34:50 29° NE
ERS-1 Rocket 3.1 21:36:09 57° ENE 21:36:09 57° ENE 21:41:00 10° N
Cosmos 1862 Rocket 3.6 21:34:06 10° N 21:38:10 73° N 21:38:10 73° N
Meteor 2-20 Rocket 4.4 21:37:01 10° N 21:43:13 84° W 21:44:35 57° S
Lacrosse 5 4.1 21:40:40 10° N 21:43:48 16° NNE 21:45:31 14° NE
SL-16 R/B 3.8 21:39:50 10° N 21:44:01 21° NE 21:44:17 21° ENE
Cosmos 2369 3.9 21:43:33 10° NNW 21:49:12 61° WSW 21:50:01 55° SW
Cosmos 2082 Rocket 3.3 21:44:19 10° SW 21:49:43 44° WNW 21:55:09 10° N
Spot 2 Rocket 4.0 21:51:36 48° SW 21:52:19 51° W 21:57:16 10° NNW
Cosmos 1818 4.0 21:47:25 10° NW 21:52:40 50° WSW 21:53:03 49° SW
CARTOSAT-1 4.2 21:57:11 52° NNW 21:57:11 52° NNW 22:00:30 10° NNW
Cosmos 2278 3.6 21:52:47 10° NNW 21:58:31 79° WSW 21:58:39 78° SW
Terra 2.5 22:00:02 47° NNE 22:00:02 47° NNE 22:03:39 10° N
Cosmos 1933 Rocket 4.4 22:01:23 48° NNW 22:01:23 48° NNW 22:04:41 10° N
Cosmos 2100 Rocket 4.4 22:05:35 48° ENE 22:05:35 48° ENE 22:10:35 10° NNE
Cosmos 2322 Rocket 3.7 22:01:51 10° N 22:06:13 25° NE 22:06:13 25° NE
USA 234 3.2 22:06:06 66° E 22:06:59 75° NE 22:13:30 10° NW
Cosmos 1605 Rocket 4.5 22:05:45 39° SW 22:07:42 55° W 22:13:41 10° N
SPOT 5 3.8 22:15:08 41° NW 22:15:08 41° NW 22:18:04 10° NNW
ATLAS 3B R/B 4.1 22:21:12 22° ENE 22:21:12 22° ENE 22:23:42 10° NE
Cosmos 2173 Rocket 4.2 22:21:11 57° NE 22:21:11 57° NE 22:26:16 10° NNE
Cosmos 2360 Rocket 4.1 22:16:44 10° NNE 22:20:19 18° NE 22:20:19 18° NE
USA 238 4.5 22:18:40 10° SW 22:24:58 47° NW 22:31:32 10° NNE
Meteor 1-19 Rocket 4.5 22:20:07 10° N 22:24:35 61° NNW 22:24:35 61° NNW
Cosmos 1980 Rocket 2.9 22:24:00 10° NW 22:28:51 45° W 22:28:51 45° W
Cosmos 1763 Rocket 4.3 22:27:16 10° NNW 22:31:09 48° N 22:31:09 48° N
Cosmos 1459 Rocket 4.2 22:42:36 69° N 22:42:36 69° N 22:48:08 10° N
CENTAUR R/B 3.3 22:51:51 42° W 22:53:04 47° NW 22:59:38 10° NNE
Cosmos 1802 Rocket 4.4 22:58:41 63° NNW 22:58:41 63° NNW 23:04:03 10° N
Lacrosse 5 3.8 23:22:30 10° NW 23:24:41 26° NNW 23:24:41 26° NNW
SL-16 R/B 3.6 23:22:56 10° NNW 23:26:08 33° NW 23:26:08 33° NW
Cosmos 2219 Rocket 4.0 23:34:48 10° N 23:38:19 25° NE 23:38:19 25° NE
Cosmos 2322 Rocket 3.9 23:45:21 10° NW 23:48:01 26° NW 23:48:01 26° NW
